TimeMST,TemperatureF,Dew PointF,Humidity,Sea Level PressureIn,VisibilityMPH,Wind Direction,Wind SpeedMPH,Gust SpeedMPH,PrecipitationIn,Events,Conditions,WindDirDegrees,DateUTC
12:53 AM,-0.0,-4.0,83,30.36,10.0,SW,6.9,-,N/A,,Clear,230,2013-12-14 07:53:00
1:53 AM,-0.0,-4.0,83,30.33,10.0,WSW,6.9,-,N/A,,Clear,240,2013-12-14 08:53:00
2:53 AM,-0.9,-5.1,83,30.33,10.0,WSW,5.8,-,N/A,,Clear,250,2013-12-14 09:53:00
3:53 AM,-0.0,-5.1,79,30.31,10.0,WSW,4.6,-,N/A,,Clear,250,2013-12-14 10:53:00
4:53 AM,-0.0,-4.0,83,30.30,10.0,Calm,Calm,-,N/A,,Clear,0,2013-12-14 11:53:00
5:53 AM,-0.0,-4.0,83,30.27,10.0,East,3.5,-,N/A,,Clear,100,2013-12-14 12:53:00
6:53 AM,1.9,-2.9,80,30.25,10.0,Calm,Calm,-,N/A,,Clear,0,2013-12-14 13:53:00
7:53 AM,3.0,-2.0,80,30.22,10.0,Calm,Calm,-,N/A,,Clear,0,2013-12-14 14:53:00
8:53 AM,5.0,-0.0,80,30.22,10.0,ENE,5.8,-,N/A,,Clear,60,2013-12-14 15:53:00
9:53 AM,6.1,-0.0,76,30.22,10.0,East,5.8,-,N/A,,Partly Cloudy,80,2013-12-14 16:53:00
10:53 AM,10.9,3.9,73,30.19,10.0,East,3.5,-,N/A,,Overcast,80,2013-12-14 17:53:00
11:53 AM,15.1,7.0,70,30.16,10.0,Calm,Calm,-,N/A,,Mostly Cloudy,0,2013-12-14 18:53:00
12:53 PM,26.1,19.0,75,30.12,10.0,West,10.4,-,N/A,,Overcast,260,2013-12-14 19:53:00
1:53 PM,37.9,28.9,70,30.10,10.0,SW,17.3,-,N/A,,Partly Cloudy,230,2013-12-14 20:53:00
2:53 PM,39.0,30.0,70,30.08,10.0,SW,16.1,-,N/A,,Clear,220,2013-12-14 21:53:00
3:53 PM,37.9,30.0,73,30.09,10.0,SW,15.0,-,N/A,,Clear,220,2013-12-14 22:53:00
4:53 PM,37.9,30.0,73,30.06,10.0,SW,20.7,-,N/A,,Clear,220,2013-12-14 23:53:00
5:53 PM,39.0,30.0,70,30.03,10.0,SW,25.3,-,N/A,,Clear,220,2013-12-15 00:53:00
6:53 PM,37.9,30.0,73,30.02,10.0,SSW,26.5,-,N/A,,Clear,210,2013-12-15 01:53:00
7:53 PM,37.0,30.0,76,30.00,10.0,SW,23.0,-,N/A,,Clear,230,2013-12-15 02:53:00
8:53 PM,37.9,30.0,73,29.96,10.0,SW,27.6,33.4,N/A,,Clear,220,2013-12-15 03:53:00
9:53 PM,39.0,30.0,70,29.96,10.0,SW,27.6,34.5,N/A,,Clear,220,2013-12-15 04:53:00
10:53 PM,39.0,30.0,70,29.93,10.0,SW,24.2,-,N/A,,Clear,220,2013-12-15 05:53:00
11:53 PM,39.0,30.9,73,29.93,10.0,SW,26.5,-,N/A,,Clear,220,2013-12-15 06:53:00